Вернуться в каталог

SL-8 R/B

АктивенPO
NORAD 15293·ROCKET BODY·🇷🇺 Russia

Запущен Sep 13, 1984 с Plesetsk Cosmodrome

Loading…

Ближайшие Пролёты (ближайшие 24 часа)

TLE

СвежийSource: Space-Track

Эпоха: Sep 14, 2026, 22:29 UTC

1 15293U 84100B   26257.93689642  .00000190  00000-0  18199-3 0  9993
2 15293  82.9365  65.3765 0022343   5.9302 354.2115 13.75434611 51451

Отслеживайте SL-8 R/B в реальном времени с AllMySat

Download on the App Store